This demonstration page uses our WeatherBlox Daily Observations layout. Learn more.

Left ArrowRight Arrow

39.95238, -75.16362

Hourly Observations for April 11, 2015

Temp ( °F °C ) Dew Point ( °F °C ) Humidity (%) Winds ( mph kmh ) Pressure ( in mb ) Visibility ( mi km ) Precip ( " mm )
12:07 am 00:07 Mostly Cloudy 56 13.3 50 10 81 81 NW 16 26 29.88 1012 8 13 0.00 0.00
12:31 am 00:31 Mostly Cloudy 57 13.9 48 8.9 72 72 NW 20 31 29.88 1012 10 16 0.00 0.00
12:54 am 00:54 Mostly Cloudy 57 13.9 43 6.1 60 60 NW 21 33 29.87 1012 10 16 0.00 0.00
1:54 am 01:54 Mostly Cloudy 57 13.9 33 0.6 41 41 NW 12 19 29.91 1013 10 16 0.00 0.00
2:54 am 02:54 Mostly Cloudy 56 13.3 32 0 40 40 NW 8 13 29.91 1013 10 16 0.00 0.00
3:54 am 03:54 Mostly Cloudy 50 10 33 0.6 52 52 WSW 7 11 29.91 1013 10 16 0.00 0.00
4:54 am 04:54 Mostly Cloudy 50 10 35 1.7 57 57 WSW 8 13 29.90 1012 10 16 0.00 0.00
5:54 am 05:54 Mostly Cloudy 51 10.6 38 3.3 61 61 WSW 12 19 29.90 1013 10 16 0.00 0.00
6:54 am 06:54 Mostly Cloudy 53 11.7 37 2.8 55 55 WSW 13 20 29.93 1013 10 16 0.00 0.00
7:22 am 07:22 Mostly Cloudy 52 11 37 3 58 58 WSW 10 17 29.94 1014 10 16 0.00 0.00
7:54 am 07:54 Partly Cloudy 55 12.8 37 2.8 51 51 WNW 8 13 29.96 1015 10 16 0.00 0.00
8:54 am 08:54 Partly Cloudy 58 14.4 34 1.1 41 41 WNW 22 35 29.99 1016 10 16 0.00 0.00
9:54 am 09:54 Partly Cloudy 59 15 32 0 36 36 NNW 22 35 30.01 1016 10 16 0.00 0.00
10:54 am 10:54 Partly Cloudy 60 15.6 31 -0.6 33 33 NNW 22 35 30.02 1017 10 16 0.00 0.00
11:54 am 11:54 Partly Cloudy 60 15.6 30 -1.1 32 32 NW 23 37 30.03 1017 10 16 0.00 0.00
12:54 pm 12:54 Mostly Sunny 60 15.6 28 -2.2 30 30 NW 17 28 30.04 1017 10 16 0.00 0.00
1:54 pm 13:54 Mostly Sunny 61 16.1 28 -2.2 29 29 W 17 28 30.05 1018 10 16 0.00 0.00
2:54 pm 14:54 Mostly Sunny 62 16.7 27 -2.8 26 26 NW 14 22 30.06 1018 10 16 0.00 0.00
3:54 pm 15:54 Mostly Sunny 62 16.7 28 -2.2 28 28 W 16 26 30.06 1018 10 16 0.00 0.00
4:54 pm 16:54 Mostly Sunny 62 16.7 26 -3.3 25 25 WNW 17 28 30.07 1018 10 16 0.00 0.00
5:54 pm 17:54 Mostly Sunny 62 16.7 24 -4.4 23 23 WNW 13 20 30.09 1019 10 16 0.00 0.00
6:54 pm 18:54 Sunny 60 15.6 25 -3.9 26 26 NNW 15 24 30.11 1020 10 16 0.00 0.00
7:54 pm 19:54 Clear 58 14.4 24 -4.4 27 27 NNW 6 9 30.14 1021 10 16 0.00 0.00
8:54 pm 20:54 Clear 56 13.3 24 -4.4 29 29 NNW 5 7 30.17 1022 10 16 0.00 0.00
9:54 pm 21:54 Clear 56 13.3 24 -4.4 29 29 VRB 6 9 30.19 1023 10 16 0.00 0.00
10:54 pm 22:54 Clear 49 9.4 30 -1.1 48 48 WSW 7 11 30.21 1023 10 16 0.00 0.00
11:54 pm 23:54 Clear 50 10 27 -2.8 41 41 N 10 17 30.24 1024 10 16 0.00 0.00

Powered by AerisWeather